Weather History for Siren, WI

Change the Weather History Date:

Monday, August 25, 2014

  Actual Average Record
Temperature  
Mean Temperature 68 °F -  
Max Temperature 78 °F - - ()
Min Temperature 59 °F - - ()
Cooling Degree Days 4    
Growing Degree Days 18 (Base 50)    
Moisture  
Dew Point 60 °F    
Average Humidity 73    
Maximum Humidity 98    
Minimum Humidity 43    
Precipitation  
Precipitation 0.00 in - - ()
Sea Level Pressure  
Sea Level Pressure 29.93 in    
Wind  
Wind Speed 5 mph (WSW)    
Max Wind Speed 16 mph    
Max Gust Speed 24 mph    
Visibility 8 miles    
Events Fog    
T = Trace of Precipitation, MM = Missing Value Source: NWS Daily Summary

Daily Weather History Graph

Daily Weather History Graph

Search for Another Location

Airport:

Trip Planner

Search our weather history database for the weather conditions in past years. The results will help you decide how hot, cold, wet, or windy it might be!

Date:

Astronomy

Aug. 25, 2014 Rise Set
Actual Time 6:21 AM CDT 8:00 PM CDT
Civil Twilight 5:50 AM CDT 8:31 PM CDT
Nautical Twilight 5:12 AM CDT 9:09 PM CDT
Astronomical Twilight 4:30 AM CDT 9:50 PM CDT
Moon 6:30 AM CDT (8/25) 7:46 PM CDT (8/25)
Length of Visible Light 14h 41m
Length of Day
13h 38m
New Moon, 0% of the Moon is Illuminated
Aug 25
New Moon
Sep 2
First Quarter
Sep 8
Full
Sep 15
Last Quarter
Sep 24
New

Hourly Weather History & Observations

Time (CDT) Temp. Dew Point Humidity Pressure Visibility Wind Dir Wind Speed Gust Speed Precip Events Conditions
12:10 AM 71.6 °F 69.6 °F 93% 29.86 in 10.0 mi Calm Calm - N/A   Overcast
12:30 AM 71.2 °F 69.4 °F 94% 29.88 in 10.0 mi Calm Calm - N/A   Mostly Cloudy
12:50 AM 70.7 °F 69.3 °F 95% 29.88 in 10.0 mi Calm Calm - N/A   Mostly Cloudy
1:10 AM 69.8 °F 68.5 °F 96% 29.88 in 2.0 mi Calm Calm - N/A   Scattered Clouds
1:30 AM 70.0 °F 69.1 °F 97% 29.88 in 10.0 mi Calm Calm - N/A   Clear
1:50 AM 69.3 °F 68.0 °F 96% 29.88 in 4.0 mi Calm Calm - N/A   Clear
2:10 AM 68.2 °F 67.3 °F 97% 29.88 in 1.2 mi Calm Calm - N/A   Mist
2:30 AM 68.0 °F 67.1 °F 97% 29.88 in 7.0 mi Calm Calm - N/A   Clear
2:50 AM 66.4 °F 65.8 °F 98% 29.89 in 0.5 mi Calm Calm - N/A Fog Fog
3:10 AM 66.6 °F 65.8 °F 98% 29.90 in 0.5 mi Calm Calm - N/A Fog Fog
3:30 AM 64.6 °F 63.9 °F 98% 29.90 in 7.0 mi Calm Calm - N/A   Clear
3:50 AM 64.2 °F 63.5 °F 98% 29.89 in 10.0 mi Calm Calm - N/A   Clear
4:10 AM 64.0 °F 63.3 °F 97% 29.89 in 10.0 mi Calm Calm - N/A   Clear
4:30 AM 63.5 °F 62.6 °F 97% 29.88 in 10.0 mi Calm Calm - N/A   Clear
4:50 AM 62.8 °F 62.2 °F 98% 29.88 in 5.0 mi Calm Calm - N/A   Scattered Clouds
5:10 AM 61.7 °F 61.0 °F 97% 29.88 in 0.2 mi Calm Calm - N/A Fog Fog
5:30 AM 61.9 °F 61.3 °F 98% 29.88 in 4.0 mi Calm Calm - N/A   Scattered Clouds
6:10 AM 59.7 °F 59.0 °F 97% 29.88 in 0.8 mi Calm Calm - N/A   Mostly Cloudy
6:30 AM 59.4 °F 58.8 °F 98% 29.89 in 0.5 mi Calm Calm - N/A Fog Fog
6:50 AM 62.1 °F 61.5 °F 98% 29.89 in 0.2 mi SSE 3.5 mph - N/A Fog Fog
7:10 AM 64.6 °F 64.0 °F 98% 29.90 in 2.0 mi South 3.5 mph - N/A   Mostly Cloudy
7:30 AM 67.1 °F 66.2 °F 97% 29.90 in 10.0 mi South 4.6 mph - N/A   Clear
7:50 AM 67.5 °F 66.9 °F 98% 29.91 in 10.0 mi South 8.1 mph - N/A   Clear
8:10 AM 69.1 °F 68.2 °F 97% 29.91 in 10.0 mi South 6.9 mph - N/A   Clear
8:30 AM 71.8 °F 67.3 °F 86% 29.91 in 10.0 mi South 6.9 mph - N/A   Clear
8:50 AM 73.6 °F 67.5 °F 81% 29.91 in 10.0 mi SW 5.8 mph - N/A   Clear
9:10 AM 75.7 °F 67.6 °F 76% 29.91 in 10.0 mi SSW 5.8 mph - N/A   Clear
9:30 AM 76.6 °F 66.2 °F 70% 29.91 in 10.0 mi SSW 9.2 mph - N/A   Clear
9:50 AM 76.8 °F 66.4 °F 70% 29.92 in 10.0 mi WSW 11.5 mph 16.1 mph N/A   Scattered Clouds
10:10 AM 77.0 °F 65.5 °F 67% 29.93 in 10.0 mi SW 15.0 mph 18.4 mph N/A   Scattered Clouds
10:30 AM 74.5 °F 65.7 °F 74% 29.94 in 10.0 mi WSW 9.2 mph - N/A   Scattered Clouds
10:50 AM 75.2 °F 65.3 °F 71% 29.94 in 10.0 mi WSW 16.1 mph 19.6 mph N/A   Scattered Clouds
11:10 AM 75.4 °F 63.5 °F 66% 29.94 in 10.0 mi WSW 13.8 mph 19.6 mph N/A   Clear
11:30 AM 76.6 °F 58.8 °F 54% 29.93 in 10.0 mi WSW 16.1 mph 21.9 mph N/A   Clear
11:50 AM 77.2 °F 59.5 °F 54% 29.93 in 10.0 mi SW 11.5 mph 16.1 mph N/A   Clear
12:10 PM 76.6 °F 58.3 °F 53% 29.93 in 10.0 mi SW 13.8 mph 17.3 mph N/A   Clear
12:30 PM 77.9 °F 57.4 °F 49% 29.93 in 10.0 mi WSW 12.7 mph - N/A   Clear
12:50 PM 78.1 °F 54.5 °F 44% 29.94 in 10.0 mi WSW 13.8 mph 23.0 mph N/A   Clear
1:10 PM 77.7 °F 53.2 °F 43% 29.93 in 10.0 mi WSW 16.1 mph 21.9 mph N/A   Clear
1:30 PM 77.5 °F 54.0 °F 44% 29.94 in 10.0 mi SW 16.1 mph 24.2 mph N/A   Clear
1:50 PM 77.4 °F 54.7 °F 45% 29.93 in 10.0 mi SW 15.0 mph 21.9 mph N/A   Clear
2:10 PM 77.0 °F 54.1 °F 45% 29.93 in 10.0 mi SW 13.8 mph 20.7 mph N/A   Clear
2:30 PM 77.7 °F 55.6 °F 46% 29.93 in 10.0 mi WSW 12.7 mph - N/A   Clear
2:50 PM 76.5 °F 55.0 °F 47% 29.93 in 10.0 mi WSW 16.1 mph 21.9 mph N/A   Clear
3:30 PM 76.5 °F 54.0 °F 46% 29.93 in 10.0 mi West 13.8 mph 19.6 mph N/A   Clear
3:50 PM 76.1 °F 53.6 °F 45% 29.93 in 10.0 mi West 15.0 mph 18.4 mph N/A   Clear
4:10 PM 76.1 °F 54.3 °F 47% 29.93 in 10.0 mi West 10.4 mph - N/A   Clear
4:30 PM 75.2 °F 52.9 °F 46% 29.93 in 10.0 mi West 13.8 mph 17.3 mph N/A   Clear
4:50 PM 74.3 °F 52.9 °F 47% 29.94 in 10.0 mi West 12.7 mph 19.6 mph N/A   Clear
5:10 PM 73.9 °F 53.8 °F 49% 29.94 in 10.0 mi West 10.4 mph 17.3 mph N/A   Clear
5:30 PM 73.8 °F 53.8 °F 50% 29.95 in 10.0 mi WNW 10.4 mph 16.1 mph N/A   Clear
5:50 PM 73.4 °F 53.6 °F 50% 29.95 in 10.0 mi West 10.4 mph - N/A   Clear
6:10 PM 72.7 °F 53.8 °F 51% 29.96 in 10.0 mi West 9.2 mph - N/A   Clear
6:30 PM 72.1 °F 55.2 °F 55% 29.97 in 10.0 mi West 6.9 mph - N/A   Clear
6:50 PM 71.4 °F 54.9 °F 56% 29.98 in 10.0 mi West 6.9 mph - N/A   Clear
7:10 PM 69.8 °F 54.9 °F 59% 29.98 in 10.0 mi West 8.1 mph - N/A   Clear
7:30 PM 68.2 °F 55.2 °F 63% 29.99 in 10.0 mi West 5.8 mph - N/A   Clear
7:50 PM 66.6 °F 55.4 °F 67% 29.99 in 10.0 mi West 3.5 mph - N/A   Clear
8:10 PM 65.7 °F 55.8 °F 70% 30.00 in 10.0 mi West 3.5 mph - N/A   Mostly Cloudy
8:30 PM 64.9 °F 55.6 °F 72% 30.00 in 10.0 mi West 4.6 mph - N/A   Mostly Cloudy
8:50 PM 65.3 °F 55.4 °F 70% 30.00 in 10.0 mi West 4.6 mph - N/A   Mostly Cloudy
9:10 PM 65.1 °F 55.6 °F 71% 30.01 in 10.0 mi West 4.6 mph - N/A   Overcast
9:30 PM 65.3 °F 55.0 °F 69% 30.02 in 10.0 mi West 6.9 mph - N/A   Overcast
9:50 PM 65.3 °F 54.9 °F 69% 30.02 in 10.0 mi West 6.9 mph - N/A   Overcast
10:10 PM 64.6 °F 54.7 °F 70% 30.02 in 10.0 mi West 9.2 mph - N/A   Mostly Cloudy
10:30 PM 63.5 °F 54.7 °F 73% 30.03 in 10.0 mi WNW 5.8 mph - N/A   Scattered Clouds
10:50 PM 62.6 °F 54.5 °F 75% 30.03 in 10.0 mi WNW 5.8 mph - N/A   Clear
11:10 PM 61.7 °F 54.3 °F 77% 30.04 in 10.0 mi West 5.8 mph - N/A   Clear
11:30 PM 61.2 °F 53.6 °F 76% 30.05 in 10.0 mi West 5.8 mph - N/A   Clear